BEIJING 1

Last updated on Mon Sep 21 2026 00:02:51 GMT+0000 (Coordinated Universal Time)

1 28890U 05043A 26263.59135012 .00000080 00000+0 24925-4 0 9997 2 28890 98.3049 37.4093 0014380 348.6194 11.4680 14.63578671114609
UTC large
Height (km)
Speed (km/s)
/
Latitude / Longitude
Inclination (degrees)
Orbital Period (minutes)
Azimuth
Elevation
Range (km)
Doppler Factor

Next 0 passes for location: London (51.5072 / 0.1276)

No passes found over London.
BEIJING 1